EW5035 Weather Reports


Display with metric or nautical units.
time (UTC)temp
F
wind
direction
speed
MPH
gust
MPH
rain 1hr
in
rain 24hr
in
rain mn
in
humidity
%
barometer
mb
20260510185034 67 211 5.0 12.0 0.00 0.00 0.00 47 1014.8
20260510184537 67 211 4.0 12.0 0.00 0.00 0.00 49 1014.7
20260510184034 67 211 6.0 10.0 0.00 0.00 0.00 49 1014.8
20260510183534 67 211 5.0 10.0 0.00 0.00 0.00 49 1014.7
20260510183038 67 211 5.0 9.0 0.00 0.00 0.00 48 1014.9
20260510182534 67 211 4.0 9.0 0.00 0.00 0.00 49 1014.8
20260510182037 66 211 4.0 9.0 0.00 0.00 0.00 49 1014.9
20260510181543 66 211 3.0 8.0 0.00 0.00 0.00 50 1014.8
20260510181031 66 211 4.0 8.0 0.00 0.00 0.00 51 1014.7
20260510180534 66 0 5.0 10.0 0.00 0.00 0.00 51 1014.7
20260510180043 66 211 2.0 10.0 0.00 0.00 0.00 51 1014.8
20260510175531 66 211 4.0 10.0 0.00 0.00 0.00 51 1015.0
20260510175034 65 211 3.0 9.0 0.00 0.00 0.00 51 1015.0
20260510174539 65 211 3.0 7.0 0.00 0.00 0.00 52 1015.1
20260510174034 64 211 4.0 7.0 0.00 0.00 0.00 52 1015.3
20260510173536 64 211 4.0 9.0 0.00 0.00 0.00 52 1015.4
20260510173039 64 211 6.0 9.0 0.00 0.00 0.00 51 1015.4
20260510172534 64 211 4.0 9.0 0.00 0.00 0.00 50 1015.3
20260510172039 64 211 5.0 9.0 0.00 0.00 0.00 51 1015.2
20260510171548 64 211 5.0 9.0 0.00 0.00 0.00 51 1015.1
20260510171034 64 211 5.0 8.0 0.00 0.00 0.00 50 1015.1
20260510170534 64 211 4.0 10.0 0.00 0.00 0.00 52 1015.0
20260510170053 63 211 6.0 10.0 0.00 0.00 0.00 52 1015.1
20260510165534 63 211 6.0 10.0 0.00 0.00 0.00 53 1015.1
20260510165033 63 211 6.0 13.0 0.00 0.00 0.00 54 1015.1
20260510164541 63 211 8.0 13.0 0.00 0.00 0.00 55 1015.3
20260510164034 63 211 7.0 12.0 0.00 0.00 0.00 55 1015.2
20260510163559 63 211 7.0 12.0 0.00 0.00 0.00 56 1015.0
20260510163053 63 211 7.0 12.0 0.00 0.00 0.00 57 1015.0
20260510162534 63 211 6.0 12.0 0.00 0.00 0.00 57 1015.0
20260510162036 63 211 8.0 10.0 0.00 0.00 0.00 56 1015.0
20260510161546 63 211 5.0 10.0 0.00 0.00 0.00 56 1015.1
20260510161036 63 211 6.0 10.0 0.00 0.00 0.00 54 1015.1
20260510160535 63 211 3.0 6.0 0.00 0.00 0.00 55 1015.2
20260510160041 63 211 2.0 9.0 0.00 0.00 0.00 57 1015.0
20260510155535 62 211 4.0 9.0 0.00 0.00 0.00 56 1015.1
20260510155036 62 211 4.0 7.0 0.00 0.00 0.00 56 1015.1
20260510154547 61 211 4.0 7.0 0.00 0.00 0.00 56 1015.1
20260510154034 61 211 3.0 7.0 0.00 0.00 0.00 58 1015.1
20260510153534 60 211 1.0 6.0 0.00 0.00 0.00 60 1015.0
20260510153042 59 211 2.0 6.0 0.00 0.00 0.00 64 1015.2
20260510152534 59 211 2.0 5.0 0.00 0.00 0.00 65 1015.3
20260510152037 58 211 4.0 5.0 0.00 0.00 0.00 65 1015.2
20260510151542 58 211 1.0 3.0 0.00 0.00 0.00 67 1015.2
20260510151034 57 211 1.0 3.0 0.00 0.00 0.00 67 1015.2
20260510150534 57 211 1.0 3.0 0.00 0.00 0.00 67 1015.2
20260510150045 56 211 0.0 5.0 0.00 0.00 0.00 67 1015.1
20260510145535 56 211 2.0 5.0 0.00 0.00 0.00 67 1015.2
20260510145036 55 211 3.0 6.0 0.00 0.00 0.00 67 1015.2
20260510144541 55 211 4.0 6.0 0.00 0.00 0.00 67 1015.2
20260510144034 55 211 3.0 5.0 0.00 0.00 0.00 68 1015.3
20260510143534 55 211 0.0 3.0 0.00 0.00 0.00 69 1015.4
20260510143046 55 0 0.0 0.0 0.00 0.00 0.00 70 1015.2
20260510142535 55 0 0.0 0.0 0.00 0.00 0.00 72 1015.0
20260510142034 54 0 0.0 0.0 0.00 0.00 0.00 73 1015.0
20260510141547 53 0 0.0 0.0 0.00 0.00 0.00 74 1014.9
20260510141034 52 0 0.0 0.0 0.00 0.00 0.00 75 1014.9
20260510140533 52 0 0.0 0.0 0.00 0.00 0.00 76 1014.9
20260510140050 51 0 0.0 0.0 0.00 0.00 0.00 79 1014.7
20260510135534 50 0 0.0 0.0 0.00 0.00 0.00 80 1014.8
20260510135035 49 0 0.0 3.0 0.00 0.00 0.00 81 1014.8
20260510134545 48 0 0.0 3.0 0.00 0.00 0.00 82 1014.8
20260510134037 48 0 1.0 3.0 0.00 0.00 0.00 82 1014.6
20260510133537 47 0 1.0 3.0 0.00 0.00 0.00 83 1014.6
20260510133117 46 211 2.0 3.0 0.00 0.00 0.00 83 1014.5
20260510132534 46 211 1.0 3.0 0.00 0.00 0.00 83 1014.6
20260510132038 46 211 0.0 3.0 0.00 0.00 0.00 83 1014.6
20260510131545 46 211 0.0 0.0 0.00 0.00 0.00 84 1014.6
20260510131034 45 0 0.0 0.0 0.00 0.00 0.00 84 1014.7
20260510130534 45 0 0.0 0.0 0.00 0.00 0.00 83 1014.7
20260510130044 45 0 0.0 2.0 0.00 0.00 0.00 83 1014.7
20260510125534 45 0 0.0 3.0 0.00 0.00 0.00 83 1014.6
20260510125035 45 0 1.0 4.0 0.00 0.00 0.00 83 1014.6
20260510124559 45 211 2.0 4.0 0.00 0.00 0.00 83 1014.6
20260510124035 45 211 2.0 4.0 0.00 0.00 0.00 82 1014.6
20260510123535 45 211 1.0 4.0 0.00 0.00 0.00 82 1014.7
20260510123047 45 211 2.0 4.0 0.00 0.00 0.00 82 1014.6
20260510122535 46 211 1.0 3.0 0.00 0.00 0.00 82 1014.7
20260510122034 46 0 0.0 0.0 0.00 0.00 0.00 82 1014.7
20260510121547 46 0 0.0 1.0 0.00 0.00 0.00 82 1014.7
20260510121035 46 0 0.0 2.0 0.00 0.00 0.00 82 1014.8
20260510120535 46 0 0.0 3.0 0.00 0.00 0.00 81 1014.8
20260510120046 46 211 1.0 3.0 0.00 0.00 0.00 81 1014.6
20260510115534 46 211 1.0 4.0 0.00 0.00 0.00 82 1014.7
20260510115034 46 211 2.0 4.0 0.00 0.00 0.00 81 1014.8
20260510114546 47 211 3.0 4.0 0.00 0.00 0.00 81 1014.8
20260510114035 47 211 2.0 4.0 0.00 0.00 0.00 81 1014.9
20260510113534 47 211 2.0 4.0 0.00 0.00 0.00 82 1015.0
20260510113042 47 211 1.0 3.0 0.00 0.00 0.00 82 1015.0
20260510112535 46 211 2.0 4.0 0.00 0.00 0.00 82 1015.1
20260510112034 46 211 1.0 4.0 0.00 0.00 0.00 81 1015.0
20260510111540 46 211 0.0 3.0 0.00 0.00 0.00 81 1015.1
20260510111034 46 211 0.0 3.0 0.00 0.00 0.00 81 1015.1
20260510110534 46 211 0.0 2.0 0.00 0.00 0.00 80 1015.1
20260510110049 46 0 0.0 2.0 0.00 0.00 0.00 81 1015.2
20260510105535 46 211 1.0 2.0 0.00 0.00 0.00 81 1015.2
20260510105035 46 0 0.0 0.0 0.00 0.00 0.00 81 1015.3
20260510104545 46 0 0.0 0.0 0.00 0.00 0.00 81 1015.1
20260510104034 46 0 0.0 0.0 0.00 0.00 0.00 81 1015.0
20260510103538 46 0 0.0 0.0 0.00 0.00 0.00 81 1015.0
20260510103054 46 0 0.0 0.0 0.00 0.00 0.00 81 1015.2
20260510102534 45 0 0.0 0.0 0.00 0.00 0.00 80 1015.2
20260510102034 46 0 0.0 0.0 0.00 0.00 0.00 80 1015.2
20260510101545 46 0 0.0 0.0 0.00 0.00 0.00 79 1015.2
20260510101034 46 0 0.0 0.0 0.00 0.00 0.00 78 1015.2
20260510100535 46 0 0.0 0.0 0.00 0.00 0.00 78 1015.2
20260510100040 47 0 0.0 1.0 0.00 0.00 0.00 78 1015.3
20260510095538 47 0 0.0 2.0 0.00 0.00 0.00 77 1015.3
20260510095034 47 0 0.0 2.0 0.00 0.00 0.00 77 1015.4
20260510094543 47 0 0.0 2.0 0.00 0.00 0.00 77 1015.4
20260510094034 48 0 0.0 0.0 0.00 0.00 0.00 76 1015.4
20260510093534 48 0 0.0 0.0 0.00 0.00 0.00 74 1015.3
20260510093047 49 0 0.0 1.0 0.00 0.00 0.00 74 1015.5
20260510092535 49 0 0.0 1.0 0.00 0.00 0.00 74 1015.5
20260510092034 49 0 0.0 1.0 0.00 0.00 0.00 74 1015.5
20260510091544 50 0 0.0 0.0 0.00 0.00 0.00 73 1015.5
20260510091034 50 0 0.0 0.0 0.00 0.00 0.00 73 1015.5
20260510090535 50 0 0.0 0.0 0.00 0.00 0.00 73 1015.6
20260510090048 50 0 0.0 0.0 0.00 0.00 0.00 72 1015.7
20260510085534 50 0 0.0 0.0 0.00 0.00 0.00 71 1015.8
20260510085034 51 0 0.0 0.0 0.00 0.00 0.00 70 1015.7
20260510084541 51 0 0.0 0.0 0.00 0.00 0.00 69 1015.8
20260510084034 52 0 0.0 0.0 0.00 0.00 0.00 68 1015.8
20260510083534 52 0 0.0 0.0 0.00 0.00 0.00 68 1015.8
20260510083038 52 0 0.0 0.0 0.00 0.00 0.00 67 1015.8
20260510082535 52 0 0.0 0.0 0.00 0.00 0.00 67 1015.8
20260510082036 52 0 0.0 0.0 0.00 0.00 0.00 67 1015.7
20260510081555 53 0 0.0 2.0 0.00 0.00 0.00 67 1015.7
20260510081035 53 0 0.0 2.0 0.00 0.00 0.00 66 1015.8
20260510080535 53 211 0.0 2.0 0.00 0.00 0.00 66 1015.9
20260510080045 53 0 0.0 2.0 0.00 0.00 0.00 66 1015.9
20260510075534 54 211 1.0 2.0 0.00 0.00 0.00 65 1016.0
20260510075034 54 211 1.0 2.0 0.00 0.00 0.00 64 1015.9
20260510074542 54 211 1.0 2.0 0.00 0.00 0.00 64 1015.9
20260510074037 54 211 0.0 1.0 0.00 0.00 0.00 64 1015.8
20260510073534 54 0 0.0 0.0 0.00 0.00 0.00 64 1015.8
20260510073040 55 0 0.0 1.0 0.00 0.00 0.00 63 1015.9
20260510072535 55 0 0.0 5.0 0.00 0.00 0.00 62 1015.9
20260510072035 55 0 1.0 7.0 0.00 0.00 0.00 62 1016.0
20260510071549 56 211 4.0 7.0 0.00 0.00 0.00 61 1015.9
20260510071034 56 211 5.0 7.0 0.00 0.00 0.00 62 1015.9
20260510070536 55 211 2.0 4.0 0.00 0.00 0.00 63 1015.8
20260510070049 55 0 1.0 3.0 0.00 0.00 0.00 63 1016.0
20260510065535 55 211 1.0 6.0 0.00 0.00 0.00 63 1016.0
20260510065035 55 0 0.0 6.0 0.00 0.00 0.00 63 1016.0
20260510064546 55 211 3.0 5.0 0.00 0.00 0.00 64 1016.1
20260510064034 54 211 1.0 4.0 0.00 0.00 0.00 65 1016.1
20260510063534 54 0 0.0 4.0 0.00 0.00 0.00 64 1016.2
20260510063045 54 0 0.0 4.0 0.00 0.00 0.00 64 1016.2
20260510062535 54 211 2.0 4.0 0.00 0.00 0.00 64 1016.4
20260510062034 54 211 2.0 5.0 0.00 0.00 0.00 64 1016.3
20260510061600 54 211 1.0 5.0 0.00 0.00 0.00 64 1016.3
20260510061037 55 211 2.0 5.0 0.00 0.00 0.00 63 1016.5
20260510060534 55 211 2.0 4.0 0.00 0.00 0.00 64 1016.5
20260510060050 55 211 3.0 4.0 0.00 0.00 0.00 64 1016.2
20260510055534 55 211 2.0 5.0 0.00 0.00 0.00 64 1016.4
20260510055036 55 211 3.0 5.0 0.00 0.00 0.00 64 1016.3
20260510054551 55 211 3.0 5.0 0.00 0.00 0.00 64 1016.4
20260510054035 54 211 2.0 4.0 0.00 0.00 0.00 64 1016.5
20260510053534 55 211 2.0 4.0 0.00 0.00 0.00 64 1016.6
20260510053043 55 211 0.0 1.0 0.00 0.00 0.00 64 1016.5
20260510052534 55 0 0.0 3.0 0.00 0.00 0.00 63 1016.6
20260510052035 55 0 0.0 3.0 0.00 0.00 0.00 63 1016.7
20260510051546 55 211 2.0 3.0 0.00 0.00 0.00 64 1016.7
20260510051035 54 211 0.0 2.0 0.00 0.00 0.00 63 1016.8
20260510050537 55 0 0.0 2.0 0.00 0.00 0.00 62 1016.8
20260510050053 55 0 0.0 3.0 0.00 0.00 0.00 62 1016.8
20260510045535 55 0 0.0 3.0 0.00 0.00 0.00 61 1017.1
20260510045034 56 211 0.0 3.0 0.00 0.00 0.00 60 1017.1
20260510044547 56 0 0.0 3.0 0.00 0.00 0.00 60 1017.2
20260510044038 56 0 0.0 3.0 0.00 0.00 0.00 59 1017.3
20260510043535 57 0 1.0 3.0 0.00 0.00 0.00 59 1017.4
20260510043041 57 211 0.0 4.0 0.00 0.00 0.00 58 1017.2
20260510042534 57 0 0.0 5.0 0.00 0.00 0.00 57 1017.2
20260510042037 58 211 2.0 5.0 0.00 0.00 0.00 57 1017.2
20260510041602 58 211 3.0 5.0 0.00 0.00 0.00 57 1017.2
20260510041035 58 211 3.0 5.0 0.00 0.00 0.00 56 1017.2
20260510040535 58 211 4.0 5.0 0.00 0.00 0.00 56 1017.2
20260510040050 59 211 0.0 3.0 0.00 0.00 0.00 55 1017.1
20260510035534 59 211 1.0 4.0 0.00 0.00 0.00 55 1017.1
20260510035036 59 0 2.0 4.0 0.00 0.00 0.00 56 1017.3
20260510034554 59 211 2.0 4.0 0.00 0.00 0.00 55 1017.3
20260510034035 59 211 2.0 4.0 0.00 0.00 0.00 56 1017.1
20260510033534 60 211 2.0 4.0 0.00 0.00 0.00 55 1017.1
20260510033051 60 211 2.0 4.0 0.00 0.00 0.00 55 1017.2
20260510032536 60 211 2.0 3.0 0.00 0.00 0.00 55 1017.0
20260510032034 61 211 1.0 4.0 0.00 0.00 0.00 55 1017.2
20260510031551 61 211 1.0 4.0 0.00 0.00 0.00 55 1017.1
20260510031034 61 211 2.0 4.0 0.00 0.00 0.00 55 1017.2
20260510030534 62 211 3.0 4.0 0.00 0.00 0.00 54 1017.1
20260510030048 63 211 2.0 5.0 0.00 0.00 0.00 53 1017.2
20260510025534 64 211 3.0 5.0 0.00 0.00 0.00 52 1017.0
20260510025035 64 211 3.0 5.0 0.00 0.00 0.00 51 1017.0
20260510024558 64 211 3.0 5.0 0.00 0.00 0.00 52 1017.1
20260510024034 65 211 3.0 5.0 0.00 0.00 0.00 52 1017.1
20260510023534 66 211 2.0 4.0 0.00 0.00 0.00 51 1017.2
20260510023045 66 211 2.0 4.0 0.00 0.00 0.00 51 1017.2
20260510022534 67 211 2.0 4.0 0.00 0.00 0.00 49 1017.1
20260510022035 68 211 2.0 4.0 0.00 0.00 0.00 48 1017.3
20260510021542 69 211 2.0 4.0 0.00 0.00 0.00 46 1017.2
20260510021034 70 211 1.0 5.0 0.00 0.00 0.00 44 1017.2
20260510020534 71 0 1.0 7.0 0.00 0.00 0.00 41 1017.4
20260510020039 71 211 4.0 7.0 0.00 0.00 0.00 37 1017.3
20260510015534 72 211 4.0 7.0 0.00 0.00 0.00 37 1017.3
20260510015036 72 211 4.0 6.0 0.00 0.00 0.00 36 1017.3
20260510014601 72 211 3.0 7.0 0.00 0.00 0.00 38 1017.4
20260510014035 72 211 4.0 7.0 0.00 0.00 0.00 36 1017.5
20260510013540 72 211 4.0 7.0 0.00 0.00 0.00 34 1017.6
20260510013054 72 211 2.0 4.0 0.00 0.00 0.00 33 1017.6
20260510012534 73 211 1.0 5.0 0.00 0.00 0.00 33 1017.6
20260510012035 72 211 3.0 5.0 0.00 0.00 0.00 33 1017.7
20260510011546 73 211 3.0 5.0 0.00 0.00 0.00 33 1017.7
20260510011034 73 211 2.0 6.0 0.00 0.00 0.00 32 1017.7
20260510010535 73 211 3.0 6.0 0.00 0.00 0.00 32 1017.9
20260510010044 73 211 4.0 7.0 0.00 0.00 0.00 32 1017.9
20260510005534 73 211 4.0 7.0 0.00 0.00 0.00 32 1017.8
20260510005033 74 211 5.0 7.0 0.00 0.00 0.00 31 1017.8
20260510004549 74 211 1.0 4.0 0.00 0.00 0.00 30 1017.8
20260510004034 74 211 1.0 4.0 0.00 0.00 0.00 30 1017.7
20260510003535 74 211 2.0 4.0 0.00 0.00 0.00 30 1017.9
20260510003039 74 211 2.0 5.0 0.00 0.00 0.00 30 1017.9
20260510002537 74 211 2.0 5.0 0.00 0.00 0.00 30 1017.9
20260510002034 74 211 1.0 5.0 0.00 0.00 0.00 30 1018.1
20260510001541 74 211 2.0 5.0 0.00 0.00 0.00 30 1018.0
20260510001035 74 211 2.0 5.0 0.00 0.00 0.00 30 1018.1
20260510000534 74 211 0.0 4.0 0.00 0.00 0.00 30 1018.1
20260510000048 74 211 1.0 4.0 0.00 0.00 0.00 31 1018.1
20260509235534 73 211 2.0 4.0 0.00 0.00 0.00 31 1018.1
20260509235036 73 211 1.0 5.0 0.00 0.00 0.00 31 1018.3
20260509234545 73 211 2.0 5.0 0.00 0.00 0.00 32 1018.4
20260509234034 74 211 3.0 5.0 0.00 0.00 0.00 32 1018.4
20260509233535 73 211 2.0 6.0 0.00 0.00 0.00 32 1018.4
20260509233046 73 211 3.0 7.0 0.00 0.00 0.00 32 1018.5
20260509232534 73 211 3.0 10.0 0.00 0.00 0.00 32 1018.5
20260509232034 73 211 3.0 10.0 0.00 0.00 0.00 32 1018.6
20260509231557 73 211 6.0 10.0 0.00 0.00 0.00 33 1018.6
20260509231034 72 211 4.0 7.0 0.00 0.00 0.00 33 1018.7
20260509230534 72 211 1.0 9.0 0.00 0.00 0.00 33 1018.8
20260509230047 72 211 5.0 9.0 0.00 0.00 0.00 33 1018.7
20260509225540 73 211 2.0 8.0 0.00 0.00 0.00 33 1018.7
20260509225034 72 211 3.0 8.0 0.00 0.00 0.00 33 1018.8
20260509224547 73 211 6.0 9.0 0.00 0.00 0.00 33 1018.8
20260509224037 73 211 2.0 10.0 0.00 0.00 0.00 33 1018.9
20260509223534 72 211 7.0 10.0 0.00 0.00 0.00 34 1018.9
20260509223050 73 204 3.0 8.0 0.00 0.00 0.00 33 1019.0
20260509222540 73 204 2.0 10.0 0.00 0.00 0.00 33 1019.1
20260509222036 73 204 4.0 10.0 0.00 0.00 0.00 33 1019.0
20260509221545 73 204 3.0 7.0 0.00 0.00 0.00 33 1019.1
20260509221034 73 204 4.0 7.0 0.00 0.00 0.00 32 1019.2
20260509220535 73 204 3.0 9.0 0.00 0.00 0.00 33 1019.3
20260509220044 72 204 1.0 9.0 0.00 0.00 0.00 34 1019.4
20260509215538 72 204 5.0 9.0 0.00 0.00 0.00 33 1019.3
20260509215036 73 204 4.0 8.0 0.00 0.00 0.00 33 1019.4
20260509214548 73 204 2.0 6.0 0.00 0.00 0.00 33 1019.4
20260509214036 73 204 2.0 6.0 0.00 0.00 0.00 34 1019.4
20260509213538 72 204 1.0 10.0 0.00 0.00 0.00 34 1019.6
20260509213050 72 204 3.0 10.0 0.00 0.00 0.00 33 1019.5
20260509212534 71 198 3.0 6.0 0.00 0.00 0.00 36 1019.5
20260509212034 72 196 2.0 6.0 0.00 0.00 0.00 34 1019.6
20260509211555 71 196 2.0 8.0 0.00 0.00 0.00 34 1019.7
20260509211035 71 196 3.0 8.0 0.00 0.00 0.00 33 1019.8
20260509210535 71 196 3.0 10.0 0.00 0.00 0.00 34 1019.9
20260509210054 71 196 4.0 10.0 0.00 0.00 0.00 34 1019.9
20260509205535 71 196 2.0 9.0 0.00 0.00 0.00 34 1020.1
20260509205035 71 196 3.0 6.0 0.00 0.00 0.00 34 1020.0
20260509204541 71 196 3.0 8.0 0.00 0.00 0.00 34 1020.1
20260509204038 71 196 4.0 8.0 0.00 0.00 0.00 35 1020.1
20260509203535 71 196 1.0 10.0 0.00 0.00 0.00 35 1020.1
20260509203052 70 196 3.0 10.0 0.00 0.00 0.00 36 1020.1
20260509202537 69 196 7.0 9.0 0.00 0.00 0.00 36 1020.1
20260509202035 70 211 3.0 14.0 0.00 0.00 0.00 35 1020.3
20260509201542 69 211 8.0 14.0 0.00 0.00 0.00 36 1020.3
20260509201034 70 211 1.0 6.0 0.00 0.00 0.00 36 1020.4
20260509200534 69 211 3.0 8.0 0.00 0.00 0.00 36 1020.4
20260509200054 69 211 2.0 8.0 0.00 0.00 0.00 37 1020.5
20260509195538 69 211 2.0 12.0 0.00 0.00 0.00 39 1020.6
20260509195034 67 211 7.0 13.0 0.00 0.00 0.00 38 1020.6
20260509194553 67 211 4.0 19.0 0.00 0.00 0.00 40 1020.6
20260509194037 68 211 6.0 19.0 0.00 0.00 0.00 40 1020.6
20260509193535 68 167 6.0 13.0 0.00 0.00 0.00 41 1020.6
20260509193054 67 168 4.0 15.0 0.00 0.00 0.00 41 1020.7
20260509192535 67 168 4.0 16.0 0.00 0.00 0.00 40 1020.9
20260509192035 68 168 10.0 16.0 0.00 0.00 0.00 40 1020.9
20260509191542 68 166 3.0 14.0 0.00 0.00 0.00 43 1021.0
20260509191037 67 0 4.0 20.0 0.00 0.00 0.00 43 1021.1
20260509190536 67 165 12.0 20.0 0.00 0.00 0.00 43 1021.1
20260509190054 67 162 6.0 15.0 0.00 0.00 0.00 45 1021.1
20260509185535 67 162 8.0 15.0 0.00 0.00 0.00 43 1021.1